EHI
59 59 51 42 36 36 42 49 57 70 84 87 73 48 24 9 3 1 2 2 3 6 4 3 4 6 7 6 5 3 1 0 0 0 0 0 0 0 0 0 0 0 0
64 63 57 49 45 49 54 57 64 74 85 89 81 64 43 24 11 4 1 1 2 3 3 3 5 7 7 6 4 3 1 0 0 0 0 0 0 0 0 0 0 0 0
71 70 66 62 63 67 70 69 71 76 83 89 89 81 64 41 19 6 1 0 0 1 1 2 4 5 6 5 3 2 1 0 0 0 0 0 0 0 0 0 0 0 0
75 74 72 72 74 77 78 75 70 68 71 76 79 75 60 37 16 5 1 0 1 1 1 1 1 2 3 2 1 1 1 0 0 0 0 0 0 0 0 0 0 0 0
69 68 66 65 67 70 70 65 57 49 48 53 56 53 41 24 11 4 1 0 1 2 2 1 0 0 1 1 0 0 0 0 0 0 0 0 0 0 0 0 0 0 0
47 45 44 43 46 48 46 41 33 26 26 30 32 30 24 16 9 4 1 0 1 1 1 1 0 0 0 0 0 0 0 0 0 0 0 0 0 0 0 0 0 0 0
22 23 23 22 23 25 22 16 12 10 12 14 13 12 10 8 6 3 1 0 0 0 0 0 0 0 0 0 0 0 0 0 0 0 0 0 0 0 0 0 0 0 0
7 8 10 11 13 14 10 5 3 4 5 4 3 2 1 1 1 1 1 0 0 0 0 0 0 0 0 0 0 0 0 0 0 0 0 0 0 0 0 0 0 0 0
1 2 3 6 9 10 6 2 2 2 2 1 1 0 0 0 0 0 0 0 0 0 0 0 0 0 0 0 0 0 0 0 0 0 0 0 0 0 0 0 0 0 0
0 0 0 2 4 5 3 0 0 1 0 0 0 0 0 0 0 0 0 0 0 0 0 0 0 0 0 0 0 0 0 0 0 0 0 0 0 0 0 0 0 0 0
0 0 0 0 1 1 0 0 0 0 0 0 0 0 0 0 0 0 0 0 0 0 0 0 0 0 0 0 0 0 0 0 0 0 0 0 0 0 0 0 0 0 0
0 0 0 0 0 0 0 0 0 0 0 0 0 0 0 0 0 0 0 0 0 0 0 0 0 0 0 0 0 0 0 0 0 0 0 0 0 0 0 0 0 0 0
0 0 0 0 0 0 0 0 0 0 0 0 0 0 0 0 0 0 0 0 0 0 0 0 0 0 0 0 0 0 0 0 0 0 0 0 0 0 0 0 0 0 0
0 0 0 0 0 0 0 0 0 0 0 0 0 0 0 0 0 0 0 0 0 0 0 0 0 0 0 0 0 0 0 0 0 0 0 0 0 0 0 0 0 0 0
0 0 0 0 0 0 0 0 0 0 0 0 0 0 0 0 0 0 0 0 0 0 0 0 0 0 0 0 0 0 0 0 0 0 0 0 0 0 0 0 0 0 0
0 0 0 0 0 0 0 0 0 0 0 0 0 0 0 0 0 0 0 0 0 0 0 0 0 0 0 0 0 0 0 0 0 0 0 0 0 0 0 0 0 0 0
0 0 0 0 0 0 0 0 0 0 0 0 0 0 0 0 0 0 0 0 0 0 0 0 0 0 0 0 0 0 0 0 0 0 0 0 0 0 0 0 0 0 0
0 0 0 0 0 0 0 0 0 0 0 0 0 0 0 0 0 0 0 0 0 0 0 0 0 0 0 0 0 0 0 0 0 0 0 0 0 0 0 0 0 0 0
0 0 0 0 0 0 0 0 0 0 0 0 0 0 0 0 0 0 0 0 0 0 0 0 0 0 0 0 0 0 0 0 0 0 0 0 0 0 0 0 0 0 0
0 0 0 0 0 0 0 0 0 0 0 0 0 0 0 0 0 0 0 0 0 0 0 0 0 0 0 0 0 0 0 0 0 0 0 0 0 0 0 0 0 0 0
0 0 0 0 0 0 0 0 0 0 0 0 0 0 0 0 0 0 0 0 0 0 0 0 0 0 0 0 0 0 0 0 0 0 0 0 0 0 0 0 0 0 0
0 0 0 0 0 0 0 0 0 0 0 0 0 0 0 0 0 0 0 0 0 0 0 0 0 0 0 0 0 0 0 0 0 0 0 0 0 0 0 0 0 0 0
0 0 0 0 0 0 0 0 0 0 0 0 0 0 0 0 0 0 0 0 0 0 0 0 0 0 0 0 0 0 0 0 0 0 0 0 0 0 0 0 0 0 0
0 0 0 0 0 0 0 0 0 0 0 0 0 0 0 0 0 0 0 0 0 0 0 0 0 0 0 0 0 0 0 0 0 0 0 0 0 0 0 0 0 0 0
0 0 0 0 0 0 0 0 0 0 0 0 0 0 0 0 0 0 0 0 0 0 0 0 0 0 0 0 0 0 0 0 0 0 0 0 0 0 0 0 0 0 0
0 0 0 0 0 0 0 0 0 0 0 0 0 0 0 0 0 0 0 0 0 0 0 0 0 0 0 0 0 0 0 0 0 0 0 0 0 0 0 0 0 0 0
Wind_Speed
7 8 8 7 6 6 8 9 8 8 7 4 4 3 3 3 2 2 3 3 3 4 4 3 4 4 4 4 4 3 4 3 2 2 4 4 5 5 5 5 5 5 6
9 9 8 8 9 8 8 7 6 6 7 6 5 3 3 3 3 2 2 3 3 4 4 4 4 4 4 5 5 4 3 3 3 3 2 4 5 3 3 2 3 4 3
12 9 8 6 5 7 7 6 5 5 5 5 3 2 2 1 1 1 2 3 4 4 4 4 4 5 5 5 6 5 6 4 3 3 4 3 4 3 3 2 2 3 4
6 5 5 5 4 4 4 5 4 3 2 3 3 4 3 3 2 2 1 2 2 3 3 4 5 5 4 5 6 6 5 5 4 3 3 4 4 2 4 3 2 3 4
6 5 4 3 4 5 5 5 5 4 3 3 3 3 2 1 1 0 1 1 1 1 1 2 3 4 4 5 6 5 5 4 4 3 3 3 3 4 4 4 4 3 3
7 6 5 4 3 4 5 4 5 4 4 4 4 4 4 3 3 3 2 2 2 2 3 2 2 2 2 4 4 4 5 4 4 3 2 2 2 2 3 4 3 4 4
4 3 3 2 1 2 3 4 5 4 4 5 5 5 5 5 4 3 3 2 2 2 3 3 2 2 2 2 1 1 1 2 2 2 2 2 3 2 2 2 3 3 3
2 2 2 2 1 2 2 4 5 5 5 5 5 5 5 4 3 4 3 2 1 1 2 3 3 2 2 2 1 1 1 1 2 2 2 2 3 2 2 2 2 3 3
0 1 2 3 3 3 3 4 5 5 5 5 5 5 5 5 4 4 3 2 1 1 2 3 3 3 3 2 2 1 2 2 2 3 3 3 2 2 2 2 2 2 3
2 2 1 3 3 3 3 4 5 5 4 4 4 5 5 5 4 4 4 3 3 3 3 3 3 3 3 3 3 2 3 3 3 2 3 3 2 2 2 2 2 3 3
2 2 1 1 3 3 3 3 4 4 4 4 5 5 4 4 5 4 3 3 2 3 3 3 3 3 4 3 3 3 3 3 3 3 2 2 2 2 2 2 2 2 2
3 1 1 1 2 2 2 2 3 3 3 4 5 5 5 5 4 3 3 3 3 3 3 3 4 4 5 4 3 3 3 2 2 2 3 4 4 4 4 3 3 3 3
4 3 2 2 2 2 2 2 2 2 2 3 5 5 5 4 3 2 2 3 3 4 5 5 5 5 6 5 5 4 4 3 3 3 4 4 4 5 4 4 4 4 4
4 3 2 1 1 2 2 2 1 1 2 3 4 4 4 4 3 2 2 3 3 4 5 5 5 5 5 6 6 5 5 5 5 5 5 4 4 4 5 4 5 5 5
4 3 3 1 1 1 2 2 1 2 3 4 4 3 3 3 3 2 2 3 4 4 4 5 5 5 5 6 6 5 5 5 5 5 4 5 7 7 4 3 4 5 5
4 4 3 2 2 1 1 2 1 1 3 4 4 3 4 4 3 3 3 4 4 4 5 5 5 6 5 8 10 6 5 5 6 5 5 5 8 9 8 8 6 5 5
4 4 3 2 2 1 1 1 0 1 3 4 3 4 4 4 4 4 4 4 3 3 4 4 5 5 7 11 10 8 5 5 5 5 5 6 8 9 7 8 10 9 10
5 4 4 3 2 2 2 2 2 2 3 4 4 4 4 4 3 4 4 3 2 3 3 4 4 5 7 11 9 7 6 5 5 5 5 5 7 8 7 7 8 7 7
5 5 4 4 3 3 3 3 2 3 4 4 4 4 4 4 3 3 2 1 2 3 3 4 4 5 6 10 10 6 4 4 4 4 5 5 6 10 11 8 8 9 8
4 4 4 3 3 3 3 4 4 4 4 4 4 4 4 3 3 2 1 1 2 3 4 4 4 4 5 9 11 7 3 3 2 3 5 8 9 10 10 6 6 8 8
6 5 4 3 4 4 4 4 4 5 5 5 5 4 3 2 2 1 1 2 2 3 4 4 3 4 5 7 11 10 4 3 3 3 4 5 11 11 10 7 4 5 5
6 6 4 4 4 4 5 5 5 5 5 5 5 4 3 1 2 2 1 2 3 4 4 3 3 3 3 6 7 10 9 5 3 3 3 5 10 10 9 6 8 10 7
6 5 6 5 4 4 6 6 5 5 6 5 5 4 3 2 2 2 2 2 3 3 3 3 2 1 2 4 7 8 9 9 4 3 7 9 10 8 6 7 10 8 5
6 5 6 6 5 5 5 6 6 6 6 6 5 4 3 2 2 2 2 2 3 3 3 3 2 1 1 2 3 3 4 6 5 5 7 9 8 6 5 5 5 4 3
6 6 7 7 6 6 6 6 6 6 6 5 4 4 3 3 2 2 1 2 2 4 5 4 3 3 1 2 1 2 3 3 3 4 4 4 4 5 5 4 4 4 4
7 7 7 7 7 7 6 6 6 7 6 5 4 3 3 3 3 3 1 2 1 3 4 4 4 3 3 2 2 4 6 7 6 3 3 3 3 3 3 3 4 4 4
Wind_Direction
146 143 159 174 192 202 201 188 182 183 176 171 179 186 207 221 231 224 206 191 190 186 179 182 191 189 198 214 219 222 241 249 237 259 292 288 264 255 251 247 245 249 255
148 155 159 171 188 194 199 189 183 184 182 182 181 183 185 206 218 223 218 205 195 192 192 195 202 204 210 222 225 216 224 243 217 200 249 306 317 302 265 252 245 257 272
154 154 155 163 168 174 181 176 180 191 186 176 158 144 139 147 197 230 234 228 212 209 209 210 212 215 212 223 227 219 217 232 241 205 186 209 253 300 301 287 263 257 256
99 112 122 124 127 136 133 127 148 156 161 155 155 165 174 192 214 221 232 253 234 230 226 227 224 225 224 229 233 228 219 218 237 240 221 209 197 225 296 301 289 273 254
65 64 70 98 105 100 104 111 116 107 103 116 135 137 137 161 155 66 44 1 339 301 264 245 240 237 234 235 237 235 227 218 222 226 232 235 226 211 226 278 303 312 280
61 48 33 31 60 91 98 103 107 103 97 101 103 110 119 113 94 73 60 38 24 11 356 329 292 265 256 251 245 240 233 227 224 224 222 215 226 221 217 251 277 290 290
70 61 49 33 36 115 128 125 117 105 98 96 93 97 103 101 96 91 78 63 41 19 1 6 2 345 324 305 286 260 253 235 235 237 240 235 236 223 215 238 264 275 291
83 92 87 66 51 78 110 118 108 105 102 100 96 93 92 91 87 82 84 74 60 23 3 16 13 6 2 3 24 36 357 337 313 300 286 268 258 240 226 225 248 285 292
237 120 92 83 63 68 84 96 101 96 92 98 99 93 92 93 90 83 78 71 46 16 18 16 8 355 349 342 341 330 306 290 280 286 290 283 276 271 256 236 211 223 267
311 329 26 69 73 64 64 79 91 97 95 101 111 109 104 100 94 83 68 52 27 17 11 358 344 334 331 329 328 315 304 301 286 273 276 286 293 296 289 267 240 217 223
278 303 345 35 73 72 63 74 88 94 95 97 100 103 102 95 85 76 62 48 30 18 6 353 352 346 340 336 333 317 314 319 322 326 340 345 348 346 338 324 311 274 232
222 221 174 101 80 80 84 84 86 93 102 110 107 106 102 97 86 74 57 46 32 17 11 17 27 28 24 15 3 342 349 1 15 21 36 19 19 10 351 348 339 314 285
200 187 155 127 110 97 82 79 75 85 95 110 113 107 106 104 102 85 56 39 31 26 29 45 52 43 30 22 13 14 28 41 50 55 58 37 27 11 353 350 344 326 317
175 164 147 143 114 83 76 75 65 68 90 107 117 120 124 126 123 99 57 39 44 50 51 58 60 52 36 23 15 23 37 44 48 55 52 35 22 3 346 343 341 336 328
174 170 162 164 104 65 54 71 69 73 92 103 107 117 116 111 107 84 55 48 54 64 68 67 54 41 37 22 20 25 39 43 45 44 39 29 17 2 347 335 331 337 336
179 170 168 173 161 115 76 71 79 82 101 107 111 106 94 90 87 83 69 62 58 62 72 71 65 47 31 21 36 48 52 49 50 39 14 11 16 3 6 10 11 6 356
180 182 184 185 190 200 159 153 147 98 105 108 106 103 99 92 83 81 73 69 63 72 83 80 72 53 21 24 33 54 71 61 51 44 30 26 18 15 12 15 15 8 7
185 186 188 193 208 218 211 197 161 130 119 116 112 112 109 103 94 85 78 70 66 77 87 84 76 58 26 23 32 63 72 64 50 41 35 34 20 16 17 19 11 359 350
186 192 195 197 206 216 216 185 163 142 140 140 133 125 123 119 114 109 98 83 82 82 87 89 82 67 29 26 38 66 75 68 51 36 31 28 21 11 24 26 10 360 351
187 195 198 185 190 211 191 172 174 161 165 160 148 130 124 129 139 146 139 116 109 107 100 87 73 72 51 38 44 54 65 68 39 10 10 16 14 11 23 29 17 1 337
196 192 185 182 196 191 166 171 174 178 171 151 133 122 124 142 152 142 136 126 115 108 100 93 72 64 57 47 47 49 53 53 43 19 357 348 357 6 11 20 18 345 332
197 188 177 191 198 175 159 167 177 169 146 137 133 131 131 143 133 129 121 125 128 122 117 105 80 45 36 41 46 50 52 53 50 10 340 331 344 353 2 12 10 12 18
192 180 172 180 190 176 161 166 175 156 141 138 144 145 132 116 115 130 130 120 130 132 136 130 116 55 19 24 38 44 44 47 46 347 335 340 347 349 353 7 18 22 22
186 171 162 169 185 182 170 171 167 155 144 149 155 150 142 132 113 105 119 126 137 139 140 142 143 114 16 360 5 11 17 19 14 350 335 340 355 9 2 0 9 15 22
176 166 167 175 185 181 176 174 164 152 152 160 165 162 162 156 140 116 121 148 170 174 163 171 165 160 199 265 296 6 2 356 347 337 344 358 358 4 7 4 4 10 18
170 169 172 177 180 176 179 179 171 160 157 165 173 173 171 170 161 150 104 42 124 141 148 159 167 195 216 250 309 340 345 342 347 15 359 346 353 359 1 1 358 5 8